Chehalis, WA

10:57 PM PDT on March 25, 2017 (GMT -0700)
Chehalis-Centralia

Weather History for KCLS - April, 2014

Change the Weather History Date:

Saturday, April 19, 2014

  Actual Average (KTDO) Record (KTDO)
Temperature  
Mean Temperature 46 °F -  
Max Temperature 55 °F 59 °F 74 °F (1983)
Min Temperature 37 °F 37 °F 26 °F (1977)
Degree Days  
Heating Degree Days 19    
Moisture  
Dew Point 43 °F    
Average Humidity 90    
Maximum Humidity 100    
Minimum Humidity 71    
Precipitation  
Precipitation 0.09 in - - ()
Sea Level Pressure  
Sea Level Pressure 29.96 in    
Wind  
Wind Speed 4 mph (SSW)    
Max Wind Speed 17 mph    
Max Gust Speed 24 mph    
Visibility 8 miles    
Events Rain    
Averages and records for this station are not official NWS values.
T = Trace of Precipitation, MM = Missing Value Source: NWS Daily Summary

Daily Weather History Graph

Daily Weather History Graph

Search for Another Location

Airport or City:

Trip Planner

Search our weather history database for the weather conditions in past years. The results will help you decide how hot, cold, wet, or windy it might be!

Date:

Astronomy

Apr. 19, 2014 Rise Set
Actual Time 6:17 AM PDT 8:05 PM PDT
Civil Twilight 5:45 AM PDT 8:37 PM PDT
Nautical Twilight 5:05 AM PDT 9:17 PM PDT
Astronomical Twilight 4:22 AM PDT 10:00 PM PDT
Moon 12:03 AM PDT (4/19) 9:32 AM PDT (4/19)
Length of Visible Light 14h 52m
Length of Day
13h 48m
Waning Gibbous, 77% of the Moon is Illuminated
Apr 19
Waning Gibbous
Apr 22
Last Quarter
Apr 28
New
May 6
First Quarter
May 14
Full

Hourly Weather History & Observations

Time (PDT) Temp. Windchill Dew Point Humidity Pressure Visibility Wind Dir Wind Speed Gust Speed Precip Events Conditions
12:15 AM 41.0 °F - 41.0 °F 100% 29.89 in 10.0 mi Calm Calm - N/A   Clear
12:35 AM 39.2 °F - 39.2 °F 100% 29.89 in 10.0 mi Calm Calm - N/A   Clear
12:55 AM 39.2 °F - 39.2 °F 100% 29.89 in 7.0 mi Calm Calm - N/A   Clear
1:15 AM 39.2 °F - 39.2 °F 100% 29.88 in 10.0 mi Calm Calm - N/A   Clear
1:35 AM 39.2 °F - 39.2 °F 100% 29.87 in 9.0 mi Calm Calm - N/A   Clear
1:55 AM 39.2 °F - 39.2 °F 100% 29.87 in 8.0 mi Calm Calm - N/A   Clear
2:15 AM 37.4 °F - 37.4 °F 100% 29.86 in 9.0 mi Calm Calm - N/A   Clear
2:55 AM 39.2 °F - 39.2 °F 100% 29.85 in 10.0 mi Calm Calm - N/A   Scattered Clouds
3:15 AM 39.2 °F - 39.2 °F 100% 29.85 in 10.0 mi Calm Calm - N/A   Scattered Clouds
3:35 AM 39.2 °F - 39.2 °F 100% 29.84 in 7.0 mi Calm Calm - N/A   Partly Cloudy
3:55 AM 39.2 °F - 39.2 °F 100% 29.84 in 5.0 mi Calm Calm - N/A   Clear
4:15 AM 39.2 °F - 39.2 °F 100% 29.84 in 9.0 mi Calm Calm - N/A   Clear
4:35 AM 39.2 °F 37.0 °F 39.2 °F 100% 29.84 in 10.0 mi WSW 3.5 mph - N/A   Scattered Clouds
4:55 AM 39.2 °F 37.0 °F 39.2 °F 100% 29.83 in 10.0 mi SSE 3.5 mph - N/A   Mostly Cloudy
5:15 AM 39.2 °F - 39.2 °F 100% 29.83 in 7.0 mi Calm Calm - N/A   Overcast
5:35 AM 41.0 °F 38.0 °F 41.0 °F 100% 29.82 in 10.0 mi South 4.6 mph - N/A   Mostly Cloudy
5:55 AM 41.0 °F 38.0 °F 39.2 °F 93% 29.82 in 9.0 mi SSW 4.6 mph - N/A   Mostly Cloudy
6:15 AM 41.0 °F 36.4 °F 39.2 °F 93% 29.82 in 8.0 mi South 6.9 mph - N/A   Overcast
6:35 AM 41.0 °F 38.0 °F 39.2 °F 93% 29.83 in 6.0 mi SW 4.6 mph - N/A   Overcast
6:55 AM 41.0 °F 38.0 °F 39.2 °F 93% 29.83 in 9.0 mi South 4.6 mph - N/A   Mostly Cloudy
7:15 AM 42.8 °F 40.1 °F 41.0 °F 93% 29.83 in 8.0 mi SSW 4.6 mph - N/A   Partly Cloudy
7:35 AM 44.6 °F 41.4 °F 41.0 °F 87% 29.82 in 9.0 mi SSW 5.8 mph - N/A   Partly Cloudy
7:55 AM 46.4 °F 42.4 °F 41.0 °F 81% 29.82 in 8.0 mi South 8.1 mph - N/A   Partly Cloudy
8:15 AM 46.4 °F 42.9 °F 41.0 °F 81% 29.82 in 10.0 mi SSW 6.9 mph - N/A   Partly Cloudy
8:35 AM 48.2 °F - 41.0 °F 76% 29.80 in 4.0 mi South 6.9 mph - N/A   Haze
8:55 AM 48.2 °F - 41.0 °F 76% 29.80 in 8.0 mi SSE 5.8 mph - N/A   Overcast
9:15 AM 50.0 °F - 41.0 °F 71% 29.80 in 9.0 mi South 5.8 mph - N/A   Overcast
9:35 AM 50.0 °F - 41.0 °F 71% 29.83 in 6.0 mi SW 8.1 mph - N/A   Haze
9:55 AM 48.2 °F - 44.6 °F 87% 29.85 in 4.0 mi SW 6.9 mph - 0.02 in   Scattered Clouds
10:15 AM 46.4 °F 43.5 °F 44.6 °F 93% 29.86 in 5.0 mi SSW 5.8 mph - 0.01 in Rain Light Rain
10:35 AM 46.4 °F 44.3 °F 44.6 °F 93% 29.87 in 4.0 mi South 4.6 mph - 0.02 in Rain Light Rain
10:55 AM 46.4 °F 42.4 °F 44.6 °F 93% 29.88 in 3.0 mi SSE 8.1 mph - 0.03 in Rain Light Rain
11:15 AM 46.4 °F 41.1 °F 44.6 °F 93% 29.88 in 5.0 mi SSE 11.5 mph - N/A Rain Light Rain
11:35 AM 46.4 °F 41.1 °F 44.6 °F 93% 29.87 in 6.0 mi SSE 11.5 mph 18.4 mph N/A Rain Light Rain
11:55 AM 46.4 °F 41.9 °F 44.6 °F 93% 29.87 in 9.0 mi SSE 9.2 mph 21.9 mph N/A   Mostly Cloudy
12:15 PM 48.2 °F - 44.6 °F 87% 29.89 in 9.0 mi SSE 12.7 mph 21.9 mph 0.01 in   Overcast
12:35 PM 48.2 °F - 44.6 °F 87% 29.91 in 4.0 mi South 12.7 mph 19.6 mph 0.01 in   Overcast
12:55 PM 48.2 °F - 44.6 °F 87% 29.92 in 6.0 mi South 11.5 mph 17.3 mph 0.01 in   Overcast
1:15 PM 48.2 °F - 46.4 °F 93% 29.92 in 4.0 mi SSW 8.1 mph - N/A Rain Light Rain
1:35 PM 50.0 °F - 48.2 °F 94% 29.92 in 10.0 mi South 17.3 mph 23.0 mph N/A   Mostly Cloudy
1:55 PM 51.8 °F - 48.2 °F 88% 29.93 in 8.0 mi South 11.5 mph 24.2 mph N/A   Scattered Clouds
2:15 PM 51.8 °F - 48.2 °F 88% 29.94 in 3.0 mi South 10.4 mph 17.3 mph N/A Rain Light Rain
2:35 PM 51.8 °F - 48.2 °F 88% 29.95 in 3.0 mi SSE 10.4 mph - N/A Rain Light Rain
3:15 PM 55.4 °F - 50.0 °F 82% 29.97 in 9.0 mi SSW 6.9 mph - N/A   Mostly Cloudy
3:35 PM 53.6 °F - 48.2 °F 82% 29.98 in 5.0 mi West 8.1 mph - 0.02 in   Mostly Cloudy
3:55 PM 53.6 °F - 48.2 °F 82% 29.99 in 9.0 mi WSW 8.1 mph 16.1 mph 0.02 in   Mostly Cloudy
4:15 PM 53.6 °F - 48.2 °F 82% 30.00 in 9.0 mi SW 6.9 mph - N/A   Mostly Cloudy
4:35 PM 53.6 °F - 46.4 °F 77% 30.02 in 10.0 mi WSW 6.9 mph 18.4 mph N/A   Mostly Cloudy
4:55 PM 53.6 °F - 46.4 °F 77% 30.03 in 10.0 mi SW 8.1 mph - N/A   Mostly Cloudy
5:15 PM 51.8 °F - 46.4 °F 82% 30.06 in 5.0 mi SW 13.8 mph 23.0 mph N/A Rain Light Rain
5:35 PM 50.0 °F - 46.4 °F 87% 30.07 in 9.0 mi WSW 9.2 mph 18.4 mph N/A   Partly Cloudy
5:55 PM 51.8 °F - 44.6 °F 76% 30.08 in 10.0 mi WSW 5.8 mph - N/A   Mostly Cloudy
6:15 PM 51.8 °F - 44.6 °F 76% 30.09 in 10.0 mi SSW 6.9 mph - N/A   Overcast
6:35 PM 51.8 °F - 44.6 °F 76% 30.10 in 7.0 mi WSW 6.9 mph - N/A   Overcast
6:55 PM 51.8 °F - 44.6 °F 76% 30.10 in 5.0 mi SW 4.6 mph - N/A   Haze
7:15 PM 51.8 °F - 44.6 °F 76% 30.11 in 10.0 mi SW 6.9 mph - N/A   Mostly Cloudy
7:35 PM 51.8 °F - 44.6 °F 76% 30.11 in 10.0 mi SSW 6.9 mph - N/A   Mostly Cloudy
7:55 PM 50.0 °F - 44.6 °F 82% 30.13 in 2.0 mi SW 9.2 mph - N/A Rain Light Rain
8:15 PM 46.4 °F 45.2 °F 44.6 °F 93% 30.14 in 10.0 mi West 3.5 mph - N/A   Mostly Cloudy
8:35 PM 46.4 °F - 44.6 °F 93% 30.15 in 9.0 mi Calm Calm - N/A   Mostly Cloudy
8:55 PM 46.4 °F - 44.6 °F 93% 30.16 in 8.0 mi Calm Calm - N/A   Overcast
9:15 PM 46.4 °F - 44.6 °F 93% 30.17 in 8.0 mi Calm Calm - N/A   Overcast
9:35 PM 46.4 °F 44.3 °F 44.6 °F 93% 30.19 in 9.0 mi SSE 4.6 mph - N/A   Overcast
9:55 PM 46.4 °F 44.3 °F 44.6 °F 93% 30.20 in 6.0 mi South 4.6 mph - N/A   Overcast
10:15 PM 48.2 °F - 46.4 °F 93% 30.20 in 8.0 mi SSW 5.8 mph - 0.01 in   Overcast
10:35 PM 48.2 °F - 46.4 °F 93% 30.22 in 7.0 mi Calm Calm - 0.01 in   Overcast
10:55 PM 46.4 °F 45.2 °F 46.4 °F 100% 30.22 in 10.0 mi South 3.5 mph - 0.01 in   Overcast
11:15 PM 46.4 °F 42.9 °F 44.6 °F 93% 30.23 in 7.0 mi SSE 6.9 mph - N/A   Overcast
11:35 PM 46.4 °F 44.3 °F 44.6 °F 93% 30.24 in 10.0 mi South 4.6 mph - N/A   Overcast
11:55 PM 46.4 °F 45.2 °F 44.6 °F 93% 30.25 in 8.0 mi WSW 3.5 mph - N/A   Overcast